This is the latest recevied weather packets stored in our database for station/object G6FJI-13. If no packets are shown the sender has not sent any weather packets the latest 10 day(s).
| Time | Temp. | Humidity | Pressure | Rain* | Wind** | Luminosity | Snow |
|---|---|---|---|---|---|---|---|
| 1778113729 | 5° C | 94% | 1018.8 hPa | 0 mm | - | 0 W/m² | - |
| 1778111347 | 5.56° C | 93% | 1018.7 hPa | 0 mm | - | 0 W/m² | - |
| 1778110715 | 5.56° C | 93% | 1018.8 hPa | 0 mm | - | 0 W/m² | - |
| 1778109516 | 6.11° C | 92% | 1018.6 hPa | 0 mm | - | 0 W/m² | - |
| 1778108357 | 6.67° C | 91% | 1018.6 hPa | 0 mm | - | 0 W/m² | - |
| 1778107058 | 6.67° C | 91% | 1018.6 hPa | 0 mm | - | 0 W/m² | - |
| 1778106510 | 6.67° C | 90% | 1018.7 hPa | 0 mm | - | 0 W/m² | - |
| 1778104659 | 7.22° C | 88% | 1018.6 hPa | 0 mm | - | 0 W/m² | - |
| 1778097404 | 10° C | 74% | 1017.7 hPa | 0 mm | - | 0 W/m² | - |
| 1778091964 | 11.67° C | 62% | 1017 hPa | 0 mm | - | 23 W/m² | - |
| 1778091321 | 11.67° C | 60% | 1016.9 hPa | 0 mm | - | 29 W/m² | - |
| 1778089505 | 12.22° C | 61% | 1016.7 hPa | 0 mm | - | 40 W/m² | - |
| 1778084070 | 12.78° C | 60% | 1016.4 hPa | 0 mm | - | 64 W/m² | - |
| 1778082147 | 13.33° C | 58% | 1016.5 hPa | 0 mm | - | 74 W/m² | - |
| 1778074952 | 13.89° C | 55% | 1016.7 hPa | 0 mm | - | 710 W/m² | - |
| 1778073753 | 15° C | 47% | 1016.8 hPa | 0 mm | - | 243 W/m² | - |
| 1778069599 | 13.33° C | 54% | 1016.7 hPa | 0 mm | - | 691 W/m² | - |
| 1778069019 | 13.89° C | 53% | 1016.7 hPa | 0 mm | - | 347 W/m² | - |
| 1778068356 | 13.89° C | 53% | 1016.9 hPa | 0 mm | - | 656 W/m² | - |
| 1778065938 | 12.78° C | 56% | 1017.1 hPa | 0 mm | - | 355 W/m² | - |
| 1778059223 | 9.44° C | 73% | 1017.3 hPa | 0 mm | - | 156 W/m² | - |
| 1778058667 | 9.44° C | 74% | 1017.3 hPa | 0 mm | - | 150 W/m² | - |
| 1778056269 | 8.89° C | 78% | 1017.2 hPa | 0 mm | - | 126 W/m² | - |
| 1778055625 | 8.89° C | 77% | 1017.1 hPa | 0 mm | - | 127 W/m² | - |
| 1778054446 | 8.33° C | 78% | 1017.1 hPa | 0 mm | - | 113 W/m² | - |
* Rain latest hour (hover to see other rain measurements)
** Current wind speed in m/s (hover to see current wind gust speed)